Flag for Germany Weather past 2 weeks in Aalen, Baden-Württemberg, Germany

Now
57 °F

Light rain. Low clouds.


Feels Like: 57 °F
Forecast: 60 / 67 °F
Wind: 3 mph from Northwest

Location: Stoetten

Current Time: Jul 29, 2014 at 4:03:52 AM

Latest Report: Jul 29, 2014 at 3:00 AM


Visibility: 0 mi

Pressure: 29.80 "Hg

Humidity: 100%

Dew point: 57 °F

Location of AalenLocation

Historic Weather in Aalen — Graph

°F

Aalen temperature yesterday

Maximum temperature yesterday: 75 °F (at 3:00 PM)
Minimum temperature yesterday: 59 °F (at 7:00 AM)
Average temperature yesterday: 66 °F

Past Weeks' High & Low Weather Summary

 TemperatureHumidityPressure
High85 °F (Jul 19, 5:00 PM)100% (Jul 21, 12:00 AM)30.19 "Hg (Jul 21, 12:00 AM)
Low56 °F (Jul 14, 6:00 AM)31% (Jul 18, 4:00 PM)29.72 "Hg (Jul 28, 6:00 PM)
Average66 °F71%29.95 "Hg
* Reported Jul 14 3:00 AM — Jul 29 3:00 AM, Aalen, Weather by CustomWeather, © 2014

Note: Actual official high and low records may vary slightly from our data, if they occured in-between our weather recording intervals... More about our weather records

Advertising

Aalen weather history for previous 24 hours

 ConditionsComfort  
Time TempWeatherWind HumidityBarometerVisibility
3:00 AM
Jul 29
57 °FLight rain. Low clouds.3 mph100%29.80 "Hg0 mi
2:00 AM57 °FLight rain. Low clouds.5 mph100%29.81 "Hg1 mi
1:00 AM57 °FLight rain. Overcast.5 mph100%29.82 "Hg7 mi
12:00 AM58 °FDrizzle. Low clouds.9 mph100%29.80 "Hg0 mi
11:00 PM
Jul 28
59 °FFog.10 mph99%29.80 "Hg2 mi
10:00 PM66 °FOvercast.2 mph78%29.78 "Hg11 mi
9:00 PM67 °FScattered clouds.3 mph75%29.76 "Hg12 mi
8:00 PM69 °FSunny.3 mph70%29.73 "Hg16 mi
7:00 PM72 °FPassing clouds.3 mph61%29.72 "Hg22 mi
6:00 PM73 °FScattered clouds.3 mph60%29.72 "Hg19 mi
5:00 PM74 °FPassing clouds.5 mph61%29.73 "Hg47 mi
4:00 PM74 °FScattered clouds.5 mph64%29.75 "Hg47 mi
3:00 PM75 °FScattered clouds.3 mph57%29.77 "Hg40 mi
2:00 PM74 °FScattered clouds.5 mph67%29.79 "Hg34 mi
1:00 PM72 °FScattered clouds.3 mph67%29.82 "Hg22 mi
12:00 PM70 °FPartly sunny.2 mph69%29.84 "Hg47 mi
11:00 AM66 °FOvercast.3 mph85%29.86 "Hg11 mi
10:00 AM65 °FOvercast.N/A88%29.88 "Hg12 mi
9:00 AM63 °FOvercast.No wind87%29.90 "Hg14 mi
8:00 AM60 °FScattered clouds.2 mph94%29.93 "Hg16 mi
7:00 AM59 °FScattered clouds.2 mph96%29.93 "Hg14 mi
6:00 AM60 °FPassing clouds.3 mph92%29.93 "Hg16 mi
5:00 AM60 °FClear.3 mph93%29.93 "Hg5 mi
4:00 AM60 °FFog.3 mph93%29.93 "Hg4 mi
Weather by CustomWeather, © 2014

See weather overviewHow to use our weather pages